Location: LDNL
(36.4545°S, 141.6685°E)
Time: 20:11:06
(UTC+10:00)

A-11 Canister half - Pass Details

Date: 05 February 2022
Orbit: 1527 x 1682 km, 47.3° (Epoch: 20 May)

Event Time Altitude Azimuth Distance (km) Brightness Sun altitude
Rises 02:41:15 0° 242° (WSW) 4,940 11.8 -35.9°
Reaches altitude 10° 02:44:34 10° 237° (WSW) 3,940 11.3 -35.7°
Maximum altitude 02:54:31 58° 159° (SSE) 1,865 9.5 -35.1°
Drops below altitude 10° 03:04:07 10° 80° (E) 3,814 11.2 -34.4°
Sets 03:07:15 0° 76° (ENE) 4,774 11.7 -34.2°
